Regional Weather Roundup
Issued by NWS New Orleans/Baton Rouge, LA

Home | Current Version | Previous Version | Text Only | Print | Product List | Glossary On
Versions: 1 2 3 4 5 6 7 8 9 10 11 12 13 14 15 16 17 18 19 20 21 22 23 24 25 26 27 28 29 30 31 32 33 34 35 36 37 38 39 40 41 42 43 44 45 46 47 48 49 50
370
ASUS44 KLIX 181010
RWRLIX
NEW ORLEANS REGIONAL WEATHER ROUNDUP
NATIONAL WEATHER SERVICE NEW ORLEANS LA
500 AM CDT THU SEP 18 2014

NOTE: "FAIR" INDICATES FEW OR NO CLOUDS BELOW 12,000 FEET WITH NO
      SIGNIFICANT WEATHER AND/OR OBSTRUCTIONS TO VISIBILITY.
      SKY/WX - SKY CONDITION AND SIGNIFICANT WEATHER.
      TMP - AIR TEMPERATURE.     DP    - DEWPOINT TEMPERATURE.
      RH  - RELATIVE HUMIDITY.   PRES  - PRESSURE.
      HI  - HEAT INDEX.          WCI   - WIND CHILL INDEX.

*  THESE STATIONS ARE NOT NWS OR FAA STATIONS AND ARE NOT UNDER
   NWS QUALITY CONTROL.

LAZ038-040-048-061>063-065>067-069-181100-
SOUTHEAST LOUISIANA

CITY           SKY/WX    TMP DP  RH WIND       PRES   REMARKS
N.O. AUDUBON     N/A     76  75  96 MISG        N/A
N.O. INTL ARPT PTCLDY    76  72  87 W3        29.89S
N.O. LAKEFRONT PTCLDY    80  74  81 N3        29.89S
N.O. DOWNTOWN*   N/A     79  70  73 CALM      29.90S
SLIDELL        PTCLDY    72  69  90 CALM      29.90R
BATON ROUGE    MOCLDY    73  72  96 CALM      29.90R
BOOTHVILLE     PTCLDY    79  76  90 CALM      29.89S
BELLE CHASSE   PTCLDY    72  69  90 CALM      29.89S
BOGALUSA*      FOG       73  69  90 CALM      29.92R VSB 1/2
GALLIANO*      NOT AVBL
NEW ROADS*     FOG       71  71  98 CALM      29.90S VSB 1/4
GONZALES*        N/A     72  72 100 CALM      29.89S
HAMMOND*       MOCLDY    73  70  88 CALM      29.92R
HOUMA*         CLOUDY   N/A N/A N/A CALM      29.89S FOG
PORT FOURCHON* SUNNY     79  73  83 N3        29.92S

$$

MSZ070-080>082-181100-
SOUTHERN MISSISSIPPI

CITY           SKY/WX    TMP DP  RH WIND       PRES   REMARKS
MCCOMB         MOCLDY    71  69  93 CALM      29.91S
GULFPORT       PTCLDY    73  72  96 CALM      29.89R
BILOXI         PTCLDY    76  73  92 CALM      29.89S
PASCAGOULA     PTCLDY    71  70  96 CALM      29.90R FOG

$$

COASTAL OBSERVATIONS
LAKE AND NEARSHORE STATIONS

STATION/POSITION TIME  TEMP    WIND        PRES    WAVE
                       AIR SEA DIR/SP/G            HT/PER
                 (UTC) (F)     (DEG/KT/KT) (MB)    (FT/S)
PASCAGOULA       1000   76     350/  6/  6 1011.7
WAVELAND YACHT   1000   77     330/  3/  4 1011.6
GRAND ISLE       1000   81 86  360/  3/  6 1012.6
SOUTHWEST PASS   1000   82 90  330/  2/  3 1012.5
NEW CANAL        1000   79 83  210/  1/  2 1012.5
SHELL BEACH      1000   81 81  270/  1/  2 1011.9

OFFSHORE STATIONS

STATION/POSITION TIME  TEMP    WIND        PRES    WAVE
                       AIR SEA DIR/SP/G            HT/PER
                 (UTC) (F)     (DEG/KT/KT) (MB)    (FT/S)
64 S DAUPHIN ISL 0929   82 85  340/  2/  4 1012.4    1/ 5

$$




USA.gov is the U.S. government's official web portal to all federal, state and local government web resources and services.